Theta_e
302 302 302 301 301 301 301 300 300 299 299 300 301 302 302 300 298 297 296 295 295 295 295 295 295 295 296 296 295 295 295 294
302 301 301 300 300 300 299 299 298 297 297 297 297 297 296 296 295 294 294 294 294 294 293 293 293 293 294 294 293 292 291 291
301 301 300 300 299 298 298 298 297 297 295 295 294 293 293 293 293 293 293 293 293 292 291 291 291 292 292 291 291 290 289 289
301 301 301 300 300 298 298 297 297 296 294 293 293 292 292 292 291 291 291 291 291 291 290 290 290 290 290 289 288 288 287 287
300 302 301 300 300 299 298 297 295 294 294 293 292 291 292 291 290 290 290 290 290 290 289 288 288 288 288 287 287 286 285 286
300 301 302 301 300 299 298 297 295 293 293 292 292 291 290 289 288 288 288 288 289 288 287 286 286 286 286 285 285 284 284 284
301 300 299 299 299 299 298 297 295 293 291 292 290 289 288 287 286 286 286 286 287 286 286 285 285 285 286 285 284 284 283 281
300 301 300 299 300 299 298 296 292 292 292 290 289 287 287 286 285 284 284 285 285 285 285 284 284 286 285 284 283 283 283 281
300 301 302 301 300 299 297 293 291 291 290 289 287 287 285 284 283 284 284 283 284 284 284 284 284 286 285 283 282 282 281 281
302 302 302 300 297 295 293 292 290 289 288 287 286 285 284 283 283 283 283 283 283 284 284 283 284 285 285 282 280 279 279 279
296 296 295 297 295 292 291 289 288 288 287 287 286 285 283 284 283 283 283 282 283 282 283 283 283 285 284 281 280 278 277 277
292 291 290 289 288 288 289 288 289 286 285 284 284 284 284 284 283 282 282 281 281 281 282 283 283 283 283 282 279 278 277 277
287 288 287 285 283 284 285 285 283 283 282 282 282 282 282 282 281 281 281 280 280 280 280 281 282 283 283 282 280 280 278 277
284 283 284 282 281 280 282 280 279 279 278 279 279 280 281 281 279 279 280 280 279 279 278 278 280 282 283 282 281 280 278 278
282 282 283 279 278 279 279 277 278 278 277 277 277 278 278 280 280 280 280 279 279 278 278 278 278 279 281 280 280 278 276 277
280 280 281 279 278 278 277 277 277 277 276 276 277 277 277 278 279 279 280 280 279 279 279 277 275 277 279 279 278 277 276 274
278 278 279 279 277 276 275 275 276 275 275 275 275 275 276 275 275 279 279 280 280 280 279 278 278 279 279 279 279 278 277 271
275 275 275 276 276 275 274 273 273 275 275 274 274 274 274 274 275 274 277 279 279 279 279 278 278 278 279 278 278 277 277 271
269 269 270 270 270 273 272 271 271 273 273 273 273 273 273 274 274 275 275 275 275 278 278 278 278 278 279 278 278 275 276 271
265 266 266 265 267 267 267 268 270 271 272 272 273 273 273 273 273 274 274 273 272 273 272 274 277 278 278 279 274 271 271 268
Wind_Speed
5 5 5 5 6 9 10 11 8 8 7 7 7 7 6 6 7 7 6 7 7 6 5 5 5 5 5 4 4 4 3 3
5 4 5 4 6 8 8 8 8 8 7 6 6 6 6 7 7 7 7 7 7 7 6 6 6 5 5 6 6 6 5 5
4 4 5 6 8 10 10 10 9 8 8 8 7 7 7 8 8 8 9 8 8 8 7 7 7 7 7 8 7 7 7 6
5 5 5 6 8 9 10 10 10 9 9 10 10 11 10 9 9 8 8 8 8 8 8 8 7 7 6 6 7 7 7 7
9 8 7 8 10 11 11 11 11 11 11 12 12 12 11 10 10 10 9 9 9 9 7 7 7 7 8 8 9 8 7 7
13 12 11 9 10 11 12 12 12 13 14 15 12 12 11 10 10 9 9 8 8 8 7 7 7 7 9 9 9 9 8 7
17 14 13 11 11 10 13 13 14 15 15 12 12 12 11 11 11 10 10 9 9 9 9 9 6 10 13 11 9 9 9 8
18 18 13 13 13 13 13 9 12 13 13 12 12 13 13 12 12 12 12 10 11 11 10 10 9 16 15 11 7 8 7 8
17 17 17 11 12 11 8 10 12 13 13 12 13 13 12 12 13 12 11 13 11 12 11 10 8 16 15 14 8 7 8 9
19 17 16 11 7 8 9 9 9 11 12 12 13 13 13 14 14 12 11 11 11 10 11 11 10 18 18 15 10 9 10 8
16 14 13 13 8 8 9 9 12 12 13 11 12 14 15 14 14 12 12 11 9 11 13 13 13 20 19 15 7 9 7 8
13 13 11 9 9 10 8 10 7 3 5 8 9 10 10 9 9 9 10 9 10 11 10 11 11 15 19 18 9 8 8 8
11 10 8 6 4 8 11 6 4 3 5 6 6 6 7 9 8 9 9 9 9 9 8 8 9 14 19 18 12 12 8 8
9 13 7 3 5 8 5 4 3 3 3 4 4 5 7 9 9 8 9 9 10 9 9 9 8 9 20 18 15 14 8 7
11 11 15 4 5 8 5 3 4 5 5 5 7 8 7 7 8 9 10 10 9 9 9 9 9 8 8 9 9 12 8 10
10 12 14 7 7 5 6 5 5 6 5 6 6 8 8 7 7 8 8 10 10 9 9 10 10 10 14 12 10 9 10 9
11 10 12 10 9 5 5 6 6 6 5 6 6 6 7 7 6 10 11 15 13 13 12 7 11 18 21 20 19 17 18 6
12 13 13 12 11 6 6 6 8 8 6 5 5 5 6 6 7 8 8 13 13 13 15 15 13 19 22 21 19 19 17 8
12 13 12 11 12 7 5 6 7 7 6 6 6 6 6 7 7 7 8 9 8 11 11 13 14 18 21 20 18 9 13 8
12 12 7 8 10 6 5 6 7 6 5 6 6 5 5 6 6 7 8 8 7 6 6 4 16 18 19 20 5 6 5 5
Wind_Direction
287 277 256 243 218 205 200 195 191 188 193 192 189 190 181 172 175 173 162 165 169 167 166 160 158 155 148 133 126 128 116 123
270 273 273 247 214 209 209 203 196 198 194 192 191 188 179 181 175 174 168 175 179 179 177 178 171 163 157 152 155 153 145 142
313 301 254 234 217 210 205 205 203 198 194 197 190 189 193 192 186 181 185 185 185 184 186 185 181 176 174 170 169 165 159 154
273 269 265 247 234 231 226 217 204 196 198 201 204 202 204 201 194 190 188 190 190 194 196 191 185 180 176 167 164 164 163 166
272 263 254 244 235 226 228 222 212 201 205 211 209 206 206 203 196 195 197 195 196 200 198 191 181 179 172 170 167 163 161 159
265 257 251 244 235 232 228 219 214 211 204 215 209 208 204 202 200 196 198 200 196 190 191 188 189 185 179 174 170 164 159 158
267 263 250 239 241 234 231 218 204 215 214 203 196 200 200 201 199 195 196 196 192 197 194 193 196 190 184 176 175 174 170 164
267 268 257 242 234 230 230 211 200 215 218 202 196 198 197 191 195 197 195 192 198 198 196 199 199 190 183 178 170 172 172 162
276 274 270 252 236 233 209 200 206 214 213 200 198 202 190 188 193 194 192 194 196 198 198 196 194 181 177 172 171 172 173 171
297 291 292 284 245 226 218 212 211 215 214 205 199 198 191 197 197 192 187 193 197 193 190 190 184 181 177 174 173 174 173 170
314 305 299 296 276 243 233 218 222 214 213 198 194 196 198 199 195 188 190 190 186 187 191 192 186 182 180 179 175 177 168 166
314 305 301 313 307 280 275 248 262 241 198 196 197 202 205 198 188 180 182 174 184 183 185 187 190 180 185 184 183 182 177 176
310 301 303 310 287 283 285 325 299 234 206 199 188 183 178 177 170 176 174 173 177 180 177 186 186 185 189 191 198 188 178 181
303 306 280 233 260 270 259 299 282 238 190 174 167 177 170 174 171 174 178 179 181 180 183 186 185 188 186 191 183 189 182 178
314 309 304 322 271 252 287 261 217 227 206 186 185 182 177 180 182 183 182 184 179 183 185 184 184 186 189 178 178 181 171 167
304 299 300 305 286 280 283 251 226 236 213 204 210 199 189 198 189 193 195 191 181 184 182 178 186 191 182 175 171 175 173 153
298 294 297 298 290 273 241 239 245 231 219 217 203 193 190 182 179 207 202 195 191 187 180 185 194 187 187 188 186 186 176 175
307 305 303 301 294 274 248 234 234 235 214 211 214 198 195 198 184 182 191 190 181 189 191 188 182 186 188 191 194 195 197 195
301 294 295 301 296 306 284 250 244 234 215 205 205 203 192 194 192 178 178 177 173 188 178 184 186 184 187 189 190 197 204 185
290 282 285 289 287 307 280 251 245 236 227 212 206 199 193 187 185 192 183 167 152 125 107 209 186 185 192 197 178 186 193 184